Location: Ellerstadt
(49.4644°N, 8.2615°E)
Time: 02:23:46
(UTC+00:00)

A-11 Canister half - Visible Passes

Search period start: 13 June 2021 00:00
Search period end: 23 June 2021 00:00
Orbit: 1513 x 1686 km, 47.2° (Epoch: 12 June)

Date Brightness Start Highest point End Pass type
(mag) Time Alt. Az. Time Alt. Az. Time Alt. Az.
16 Jun 10.9 02:38:01 10° SSE 02:42:53 15° SE 02:47:41 10° E visible
17 Jun 10.9 02:15:48 10° SSE 02:20:05 14° SE 02:24:20 10° E visible
18 Jun 10.9 01:53:44 10° SE 01:57:18 12° ESE 02:00:50 10° ESE visible
19 Jun 10.9 01:31:54 10° SE 01:34:31 11° ESE 01:37:06 10° ESE visible
20 Jun 11.0 01:11:00 10° SE 01:11:44 10° ESE 01:12:29 10° ESE visible
22 Jun 10.1 02:20:07 10° SSW 02:28:42 33° SE 02:37:05 10° E visible
